Biggs Army Air Field / Ft. Bl, TX

4:38 AM MST on December 13, 2017 (GMT -0700)
Biggs Army Air Field

Weather History for KBIF - January, 2014

Change the Weather History Date:

Wednesday, January 22, 2014

  Actual Average (KELP) Record (KELP)
Temperature  
Mean Temperature 49 °F -  
Max Temperature 62 °F 58 °F 75 °F (1950)
Min Temperature 36 °F 34 °F 8 °F (1918)
Degree Days  
Heating Degree Days 16    
Moisture  
Dew Point 12 °F    
Average Humidity 25    
Maximum Humidity 36    
Minimum Humidity 14    
Precipitation  
Precipitation 0.00 in - - ()
Sea Level Pressure  
Sea Level Pressure 30.01 in    
Wind  
Wind Speed 4 mph (NE)    
Max Wind Speed 6 mph    
Max Gust Speed -    
Visibility 7 miles    
Events      
Averages and records for this station are not official NWS values.
T = Trace of Precipitation, MM = Missing Value Source: NWS Daily Summary

Daily Weather History Graph

Daily Weather History Graph

Search for Another Location

Airport or City:

Trip Planner

Search our weather history database for the weather conditions in past years. The results will help you decide how hot, cold, wet, or windy it might be!

Date:

Astronomy

Jan. 22, 2014 Rise Set
Actual Time 7:03 AM MST 5:30 PM MST
Civil Twilight 6:37 AM MST 5:56 PM MST
Nautical Twilight 6:08 AM MST 6:26 PM MST
Astronomical Twilight 5:39 AM MST 6:55 PM MST
Moon 11:39 PM MST (1/22) 10:31 AM MST (1/22)
Length of Visible Light 11h 18m
Length of Day
10h 26m
Waning Gibbous, 65% of the Moon is Illuminated
Jan 22
Waning Gibbous
Jan 23
Last Quarter
Jan 30
New
Feb 6
First Quarter
Feb 14
Full

Hourly Weather History & Observations

Time (MST) Temp. Windchill Dew Point Humidity Pressure Visibility Wind Dir Wind Speed Gust Speed Precip Events Conditions
12:56 AM 39.4 °F 36.1 °F 11.7 °F 32% 30.15 in 7.0 mi NNE 4.6 mph - N/A   Mostly Cloudy
1:56 AM 39.2 °F 37.0 °F 11.8 °F 33% 30.14 in 7.0 mi NE 3.5 mph - N/A   Mostly Cloudy
2:56 AM 37.8 °F 35.3 °F 11.5 °F 34% 30.12 in 7.0 mi NE 3.5 mph - N/A   Mostly Cloudy
3:56 AM 36.0 °F 31.1 °F 10.9 °F 36% 30.11 in 7.0 mi ENE 5.8 mph - N/A   Mostly Cloudy
4:56 AM 37.2 °F 32.6 °F 11.3 °F 34% 30.11 in 7.0 mi NNE 5.8 mph - N/A   Mostly Cloudy
5:56 AM 37.0 °F 32.4 °F 12.0 °F 36% 30.11 in 7.0 mi NNE 5.8 mph - N/A   Mostly Cloudy
6:56 AM 37.0 °F 32.4 °F 11.5 °F 35% 30.14 in 7.0 mi North 5.8 mph - N/A   Mostly Cloudy
7:56 AM 37.8 °F 35.3 °F 11.3 °F 34% 30.12 in 7.0 mi North 3.5 mph - N/A   Mostly Cloudy
8:56 AM 42.3 °F 38.6 °F 11.5 °F 29% 30.11 in 7.0 mi North 5.8 mph - N/A   Mostly Cloudy
9:56 AM 45.0 °F 42.6 °F 11.8 °F 26% 30.13 in 7.0 mi North 4.6 mph - N/A   Mostly Cloudy
10:56 AM 50.4 °F - 12.0 °F 22% 30.09 in 7.0 mi NNE 2.3 mph - N/A   Mostly Cloudy
11:56 AM 54.5 °F - 11.5 °F 18% 30.02 in 7.0 mi ENE 2.3 mph - N/A   Mostly Cloudy
12:56 PM 57.2 °F - 11.1 °F 16% 29.98 in 7.0 mi South 1.2 mph - N/A   Mostly Cloudy
1:56 PM 59.5 °F - 11.8 °F 15% 29.94 in 7.0 mi North 1.2 mph - N/A   Mostly Cloudy
2:56 PM 62.2 °F - 12.4 °F 14% 29.90 in 7.0 mi South 4.6 mph - N/A   Mostly Cloudy
3:56 PM 62.2 °F - 12.9 °F 15% 29.88 in 7.0 mi SSE 2.3 mph - N/A   Mostly Cloudy
4:56 PM 62.2 °F - 12.9 °F 15% 29.90 in 7.0 mi ESE 3.5 mph - N/A   Mostly Cloudy
5:56 PM 60.3 °F - 13.3 °F 16% 29.88 in 7.0 mi ESE 4.6 mph - N/A   Mostly Cloudy
6:56 PM 57.9 °F - 13.3 °F 17% 29.89 in 7.0 mi ENE 2.3 mph - N/A   Partly Cloudy
7:56 PM 53.6 °F - 14.0 °F 21% 29.90 in 7.0 mi NW 3.5 mph - N/A   Partly Cloudy
8:56 PM 48.2 °F - 12.0 °F 23% 29.92 in 7.0 mi North 1.2 mph - N/A   Scattered Clouds
9:56 PM 48.7 °F - 14.4 °F 25% 29.91 in 7.0 mi SSE 2.3 mph - N/A   Partly Cloudy
10:56 PM 49.1 °F - 14.5 °F 25% 29.91 in 7.0 mi SSE 3.5 mph - N/A   Clear
11:56 PM 46.9 °F - 14.4 °F 27% 29.91 in 7.0 mi Variable 3.5 mph - N/A   Clear